Regional Weather Roundup
Issued by NWS

Home | Current Version | Previous Version | Graphics & Text | Print | Product List | Glossary On
Versions: 1 2 3 4 5 6 7 8 9 10 11 12 13 14 15 16 17 18 19 20 21 22 23 24 25 26 27 28 29 30 31 32 33 34 35 36 37 38 39 40 41 42 43 44 45 46 47 48 49 50
000
ASUS45 KCYS 161610
RWRWY

WYOMING REGIONAL WEATHER ROUNDUP
NATIONAL WEATHER SERVICE CHEYENNE WY
900 AM MST SAT DEC 16 2017

NOTE:  "FAIR" INDICATES FEW OR NO CLOUDS BELOW 12,000 FEET
WITH NO SIGNIFICANT WEATHER AND/OR OBSTRUCTIONS TO VISIBILITY.

WYZ001-161700-
YELLOWSTONE NATIONAL PARK

CITY           SKY/WX    TMP DP  RH WIND       PRES   REMARKS
LK YELLOWSTONE   N/A     20  18  92 CALM      29.85S
W YELLOWSTONE  NOT AVBL

$$
WYZ002>013-054>058-071-098>099-161700-
NORTHERN WYOMING

CITY           SKY/WX    TMP DP  RH WIND       PRES   REMARKS
JACKSON        LGT SNOW  25  21  86 N8        29.85R FOG     WCI  16
CODY           LGT SNOW  32  30  93 N5        29.88S VSB 3/4 WCI  27
GREYBULL       SNOW      29  29 100 SE3       29.89R VSB 1/2
WORLAND        SNOW      32  32 100 CALM      29.88R VSB 1/2
SHERIDAN       LGT SNOW  32  32 100 NE7       29.93R VSB 3/4 WCI  26
BUFFALO        SNOW      32  28  85 N5        29.91R VSB 1/2 WCI  27
GILLETTE       LGT SNOW  30  28  92 N10       29.92R FOG     WCI  21
HULETT         CLOUDY    32  28  86 N7        29.93R WCI  26
NEWCASTLE      FAIR      32  25  74 NW8       29.89R WCI  25

$$
WYZ014>020-022>026-101>103-161700-
CENTRAL WYOMING

CITY           SKY/WX    TMP DP  RH WIND       PRES   REMARKS
BIG PINEY      CLOUDY    24  23  96 CALM      29.83S
PINEDALE       LGT SNOW  27  25  93 CALM      29.83S
DUBOIS         LGT SNOW  27  23  86 SE8       29.80S VSB 3/4 WCI  18
LANDER         CLOUDY    28  27  96 W7        29.82S FOG     WCI  21
RIVERTON       CLOUDY    26  20  77 NE8       29.83R WCI  18
CASPER         LGT SNOW  30  28  92 E10       29.88S VSB 3/4 WCI  21
DOUGLAS        CLOUDY    35  22  58 W3        29.90R

$$
WYZ021-027>030-104>119-161700-
SOUTHERN WYOMING

CITY           SKY/WX    TMP DP  RH WIND       PRES   REMARKS
EVANSTON       NOT AVBL
FORT BRIDGER   CLOUDY    30  24  79 NW3       29.85F
ROCK SPRINGS   FAIR      28  20  71 SE5       29.83S WCI  23
DIXON          FAIR      24  13  62 SE5       29.86F WCI  18
RAWLINS        CLOUDY    32  12  43 W12       29.83F WCI  23
SARATOGA       CLOUDY    27  18  69 S6        29.84F WCI  20
LARAMIE        CLOUDY    27  15  61 NW12      29.84R WCI  17
CHEYENNE       FAIR      35  15  44 N12       29.83R WCI  27
TORRINGTON     FAIR      37  18  46 NW5       29.86R WCI  33
PINE BLUFFS    FAIR      41  12  30 N14G22    29.83S

$$



USA.gov is the U.S. government's official web portal to all federal, state and local government web resources and services.